COSMOS 2024 (ETALON 2)

Satellite information

Favourite Embed

Satellite Type and Status

PAYLOADIN ORBIT

Key statistics

Satellite COSMOS 2024 (ETALON 2) at a glance.

Uptime

13240

Days in orbit

Revolutions

≈ 2.1

Per day

Orbit

MEO

Medium Earth Orbit

Inclination

65.1

Latest

Satellite identification and parameters

Extended collection of information and parameters for COSMOS 2024 (ETALON 2).

Object identification

Identified? True

Debris? False

Object name: COSMOS 2024 (ETALON 2)

International designator: 1989-039C

Object number (NORAD): 20026

Object ID (CCSDS): 20026

Country: COMMONWEALTH OF INDEPENDENT STATES (CIS)

Current information (Y/N): Y

RCS size: LARGE

Orbital parameters

Period: 675.407 minutes

Inclination: 65.1105 deg

SMA: 25499.838 km

Apoapsis: 19173.508 km

Periapsis: 19069.897 km

RAAN: 320.5967 deg

Eccentricy: 0.0020316

Argument of periapsis: 214.6385 deg

Mean anomaly: 191.8809 deg

Mean motion: 2.13204633 rev/day

Mean motion (dot): -0.0000007 rev/day2

B* drag term: 0.0 1/REarth

Two-line elements (TLE)

Creation date: Aug. 29, 2025, 2:15 a.m.

Reference frame: TEME

Reference center: EARTH

Epoch: Aug. 28, 2025, 9:05 p.m. UTC

TLE line 0: 0 COSMOS 2024 (ETALON 2)

TLE line 1: 1 20026U 89039C 25240.87877403 -.00000070 00000-0 00000-0 0 9994

TLE line 2: 2 20026 65.1105 320.5967 0020316 214.6385 191.8809 2.13204633282274

Live tracking on map

Real-time ground track for satellite COSMOS 2024 (ETALON 2).

In-orbit conjunctions

A list of the most updated potential collisions computed for object COSMOS 2024 (ETALON 2).

Target Orbit TCA Probability of collision Miss distance Type
COSMOS 1948 (GLONASS) MEO 2025-05-18 12:00:08 TBA 4412.0 (m) PAYLOAD
FREGAT R/B MEO 2025-02-11 02:42:05 TBA 4370.0 (m) ROCKET BODY

Associated space launch

GLONASS navigation satellites

COSMOS 2024 (ETALON 2) was lifted into orbit during the mission ‘Proton | Uragan 34 & 35’, on board a Proton space rocket.

The launch took place on May 31, 1989, 8:31 a.m. from 200/40.

For more information about the launch, click the button.

Launch to space Proton | Uragan 34 & 35
Proton | Uragan 34 & 35

Agency: N/A

Status: Launch Successful

Launch date: May 31, 1989, 8:31 a.m. UTC

Rocket: Proton

Launch pad: 200/40

Location: Baikonur Cosmodrome, Republic of Kazakhstan

...

Latest news about this satellite

There are no fresh news available about this satellite. Check back as we update our databases every day.


Newsletter sign-up

Weekly statistics, charts and insights to help you stay on top of the space industry.